User: anonymous
Location: Caltech
(34.1382°N, 118.1253°W)
Time: 16:29:33
(UTC-07:00)
Language:

Iridium 21 - Orbit

View from above orbital plane
View from above orbital plane
View from above satellite
View from above satellite

Ground track
Ground track

The orbit data is extracted from the following two-line orbital elements,

1 25778U 99032B   14259.47841208  .00000175  00000-0  55457-4 0  8821
2 25778 086.3922 283.9194 0002551 110.8540 026.0727 14.34219379804109
Epoch (UTC): 16 September 2014 11:28:54
Eccentricity: 0.0002551
inclination: 86.3922°
perigee height: 776 km
apogee height: 779 km
right ascension of ascending node: 283.9194°
argument of perigee: 110.8540°
revolutions per day: 14.34219379
mean anomaly at epoch: 26.0727°
orbit number at epoch: 80410

The dashed part of the orbit path shows where the satellite is in the earth's shadow,  

DLR